AirNav   Air Wisconsin pilot careers
 
 736 users online  

63B Limington-Harmon Airport
Limington, Maine, USA


FAA INFORMATION EFFECTIVE 04 JANUARY 2018

Location

FAA Identifier: 63B
Lat/Long: 43-45-46.9000N / 070-40-20.9000W
43-45.781667N / 070-40.348333W
43.7630278 / -70.6724722
(estimated)
Elevation: 292.3 ft. / 89.1 m (surveyed)
Variation: 17W (1985)
From city: 3 miles N of LIMINGTON, ME
Time zone: UTC -5 (UTC -4 during Daylight Saving Time)
Zip code: 04049

Airport Operations

Airport use: Open to the public
Activation date: 09/1975
Control tower: no
ARTCC: BOSTON CENTER
FSS: BANGOR FLIGHT SERVICE STATION
NOTAMs facility: BGR (NOTAM-D service available)
Attendance: UNATTENDED UNATTENDED UNATTENDED
Pattern altitude: 1392.3 ft. MSL
Wind indicator: lighted
Segmented circle: no
Lights: ACTVT LIRL RY 11/29 5 CLICKS - CTAF.

Airport Communications

CTAF/UNICOM: 122.7
APPROACH: 119.75
DEPARTURE: 119.75
WX ASOS at PWM (17 nm SE): PHONE 207-874-7914
WX ASOS at IZG (18 nm NW): 135.775 (207-935-2882)
  • CLNC DLVY THRU FLIGHT SERVICES 1-800-WX-BRIEF.

Nearby radio navigation aids

VOR radial/distance  VOR name  Freq  Var
ENEr010/20.4KENNEBUNK VOR/DME117.1017W

 
NDB name  Hdg/Dist  Freq  Var  ID
ROLLINS028/33.326016WESG . ... --.

Airport Services

Fuel available: 100LL
24 HR. SELF-SERVE FUEL WITH MAJOR CREDIT CARD
Parking: hangars and tiedowns
Airframe service: NONE
Powerplant service: NONE

Runway Information

Runway 11/29

Dimensions: 2973 x 50 ft. / 906 x 15 m
Surface: asphalt, in fair condition
Runway edge lights: low intensity
RY 11/29 NSTD LIRL. RY 29 HAS 2 THLD LIGHTS 320 FT FM THLD. RY 11 HAS 2 THLD LIGHTS 320 FT FM THLD, RWY LIGHTS SPACED AT 400 FT, MANY LIGHTS MISSING.
Runway edge markings: MARKED AS BASIC. NUMBERS DISPLACED 320' FM THRESHOLD
RUNWAY 11  RUNWAY 29
Latitude: 43-45.794253N43-45.769358N
Longitude: 070-40.685082W070-40.010848W
Elevation: 292.3 ft.279.1 ft.
Gradient: 0.4% UP
Traffic pattern: leftleft
Markings: basic, in fair conditionbasic, in fair condition
Touchdown point: yes, no lightsyes, no lights
Obstructions: 70 ft. trees, 330 ft. from runway, 140 ft. left of centerline, 1:1 slope to clear
+2'-20' BRUSH AND TREES 25'-200' FM THRESHOLD, 0'B; +3' BERM 0'-200' FM THRESHOLD, 50'R
47 ft. trees, 405 ft. from runway, 50 ft. right of centerline, 4:1 slope to clear
+15 FT ROAD 50-200 FT FM THLD 0-125 FT RIGHT; +25 FT POLE 50 FT FM THLD 100 FT RIGHT; +35 FT D L 0-200 FT FM THLD, 125 FT RIGHT; FUEL TANK 0 FT FM THLD, 125 FT RIGHT.

Airport Ownership and Management from official FAA records

Ownership: Privately-owned
Owner: LIMINGTON AIRPORT AUTHORITY, LLC
P.O. BOX 483
LIMINGTON, ME 04049
Phone 207-637-2121
Manager: MAHMOUD KANJ
P.O. BOX 483
LIMINGTON, ME 04049
Phone 207-637-2121
EMERGENCY PHONE: 207-756-5782.

Airport Operational Statistics

Aircraft based on the field: 70
Single engine airplanes: 65
Multi engine airplanes: 2
Helicopters: 1
Ultralights: 2
    
Aircraft operations: avg 34/day *
80% local general aviation
20% transient general aviation
<1% military
* for 12-month period ending 13 August 2016

Additional Remarks

WILDLIFE ON OR IN VICINITY OF AIRPORT
TREE REMOVAL AND GRADING UNDERWAY ON NORTH SIDE OF RUNWAY. WILL CONTINUE ON SOUTH SIDE AND WEST END WHEN NORTH SIDE COMPLETED.

Instrument Procedures

There are no published instrument procedures at 63B.

Some nearby airports with instrument procedures:

KPWM - Portland International Jetport (17 nm SE)
KIZG - Eastern Slopes Regional Airport (18 nm NW)
B19 - Biddeford Municipal Airport (20 nm SE)
KSFM - Sanford Seacoast Regional Airport (22 nm S)
KLEW - Auburn/Lewiston Municipal Airport (24 nm NE)
 
Loc | Ops | Rwys | IFR | FBO | Links
Com | Nav | Svcs | Stats | Notes

Auburn-Lewiston Municipal Airport
 
Area around 63B (Limington-Harmon Airport)
 
Road maps at: MapQuest Bing Google
 
Aerial photo
WARNING: Photo may not be current or correct
Aerial photo of 63B (Limington-Harmon Airport)
Photo by Pete Chaisson- Portland Flight Services
Photo taken 25-Sep-2014
looking southwest.

Do you have a better or more recent aerial photo of Limington-Harmon Airport that you would like to share? If so, please send us your photo.

 
Sectional chart

 
Airport distance calculator
Flying to Limington-Harmon Airport? Find the distance to fly.

From to 63B

Sunrise and sunset
Times for 22-Jan-2018
 Local
(UTC-5)
 Zulu
(UTC)
Morning civil twilight06:3911:39
Sunrise07:1012:10
Sunset16:3921:39
Evening civil twilight17:1022:10

Current date and time
Zulu (UTC)  23-Jan-2018 04:27:09
Local (UTC-5)  22-Jan-2018 23:27:09
 
METAR
KPWM 
18nm SE 
230351Z 01008KT 3SM -SN BR OVC011 M06/M07 A3027 RMK AO2 SLP250 P0002 T10561067
KIZG 
18nm NW 
230422Z AUTO 03004KT 2SM -SN BR OVC021 M06/M06 A3025 RMK AO2 P0001 T10561056
KSFM 
23nm S 
230356Z AUTO 02010KT 7SM UP OVC008 M05/M06 A3024 RMK AO2 UPB31SNE31 SLP246 P0000 T10501061 400111050 FZRANO
KLEW 
24nm NE 
230416Z AUTO 36009KT 1 1/4SM UP BR SCT003 OVC010 M07/M08 A3027 RMK AO2 P0000 FZRANO
KCWN 
26nm NW 
230358Z AUTO 20013G18KT 10SM OVC110 01/M19 A3001 RMK AO2 SLP092 T00061195 $
KDAW 
31nm S 
230412Z AUTO 02009KT 7SM -FZRA OVC007 M04/M05 A3020 RMK AO2 FZRAB06 P0000 I1000 T10441050
KLCI 
34nm W 
230356Z AUTO 08010KT 10SM UP BKN009 OVC014 M04/M06 A3021 RMK AO2 UPB34SNE34 CIG 007V013 SLP251 P0003 T10441056 FZRANO
TAF
KPWM 
18nm SE 
230057Z 2301/2324 05011KT 1 1/2SM -SN BR BKN008 OVC012 TEMPO 2301/2305 1SM -SNPL BR OVC005 FM230500 04007KT 3SM -FZRAPL OVC007 FM231500 13007KT 5SM -RA OVC005 WS020/19040KT
NOTAMs
Click for the latest NOTAMs
NOTAMs are issued by the DoD/FAA and will open in a separate window not controlled by AirNav.

 

 
 

FBO, Fuel Providers, and Aircraft Ground Support

  
 Business Name 
 
 Contact 
 
 Services / Description 
 
Fuel Prices
 
Comments
  
 Limington-Harmon Airport
207-637-2121
[web site]
[email]
Airport management, Aviation fuel, Aircraft parking (ramp or tiedown), Hangars, Passenger terminal and lounge, Aircraft maintenance, Aircraft modifications, Aircraft painting, ...

More info about Limington-Harmon Airport
independent
100LL
SS $4.99 
 Updated 22-Nov-2017
 
   write
SS=Self service
Update Fuel Prices
 

Would you like to see your business listed on this page?

 If your business provides an interesting product or service to pilots, flight crews, aircraft, or users of the Limington-Harmon Airport, you should consider listing it here.  To start the listing process, click on the button below
 
Add a business
 

Other Pages about Limington-Harmon Airport

Update a link
 
Copyright © AirNav, LLC. All rights reserved. Privacy Policy  Contact